Flag for Portugal Weather past 2 weeks in Cascais, Portugal

Now
82 °F

Passing clouds.


Feels Like: 81 °F
Forecast: 63 / 76 °F
Wind: 9 mph from Northwest

Location: Lisbon Portela Airport

Current Time: Aug 20, 2014 at 4:15:05 PM

Latest Report: Aug 20, 2014 at 3:30 PM


Visibility: N/A

Pressure: 30.04 "Hg

Humidity: 32%

Dew point: 50 °F

Location of CascaisLocation

Historic Weather in Cascais — Graph

°F

Cascais temperature yesterday

Maximum temperature yesterday: 77 °F (at 12:30 PM)
Minimum temperature yesterday: 63 °F (at 2:00 AM)
Average temperature yesterday: 68 °F

Past Weeks' High & Low Weather Summary

 TemperatureHumidityPressure
High90 °F (Aug 17, 5:00 PM)94% (Aug 9, 4:30 AM)30.15 "Hg (Aug 9, 4:30 AM)
Low61 °F (Aug 14, 6:00 AM)25% (Aug 17, 6:30 PM)29.83 "Hg (Aug 17, 8:00 PM)
Average71 °F67%30.02 "Hg
* Reported Aug 5 3:00 PM — Aug 20 3:00 PM, Cascais, Weather by CustomWeather, © 2014

Note: Actual official high and low records may vary slightly from our data, if they occured in-between our weather recording intervals... More about our weather records

Advertising

Cascais weather history for previous 24 hours

 ConditionsComfort  
Time TempWeatherWind HumidityBarometerVisibility
3:00 PM
Aug 20
81 °FPassing clouds.10 mph39%30.07 "HgN/A
2:30 PM82 °FPassing clouds.9 mph30%30.04 "HgN/A
2:00 PM81 °FPassing clouds.9 mph39%30.07 "HgN/A
1:30 PM82 °FSunny.3 mph37%30.07 "Hg10 mi
1:00 PM79 °FSunny.7 mph34%30.07 "Hg10 mi
12:30 PM79 °FPassing clouds.7 mph32%30.09 "HgN/A
12:00 PM75 °FPassing clouds.7 mph41%30.09 "HgN/A
11:30 AM75 °FPassing clouds.6 mph44%30.09 "HgN/A
11:00 AM73 °FPassing clouds.7 mph50%30.09 "HgN/A
10:52 AM73 °FPassing clouds.6 mph50%30.09 "HgN/A
10:00 AM68 °FPassing clouds.5 mph69%30.09 "HgN/A
9:30 AM66 °FPassing clouds.7 mph73%30.07 "HgN/A
9:00 AM64 °FPassing clouds.9 mph78%30.07 "HgN/A
8:30 AM63 °FPassing clouds.7 mph88%30.07 "HgN/A
8:00 AM63 °FPassing clouds.7 mph88%30.04 "HgN/A
7:30 AM61 °FPassing clouds.2 mph88%30.04 "HgN/A
7:00 AM61 °FPassing clouds.5 mph88%30.04 "HgN/A
6:30 AM61 °FPassing clouds.6 mph94%30.04 "HgN/A
6:00 AM61 °FPassing clouds.3 mph94%30.04 "HgN/A
5:30 AM63 °FPassing clouds.2 mph88%30.04 "HgN/A
5:00 AM63 °FPassing clouds.3 mph88%30.04 "HgN/A
4:30 AM63 °FPassing clouds.3 mph88%30.04 "HgN/A
4:00 AM63 °FPassing clouds.7 mph88%30.04 "HgN/A
3:30 AM63 °FPassing clouds.6 mph88%30.04 "HgN/A
3:00 AM63 °FPassing clouds.5 mph88%30.04 "HgN/A
2:30 AM63 °FPassing clouds.5 mph88%30.07 "HgN/A
2:00 AM63 °FPassing clouds.5 mph88%30.04 "HgN/A
1:30 AM63 °FPassing clouds.6 mph88%30.07 "HgN/A
1:00 AM63 °FPassing clouds.5 mph88%30.07 "HgN/A
12:30 AM63 °FPassing clouds.3 mph88%30.07 "HgN/A
12:00 AM63 °FPassing clouds.9 mph88%30.07 "HgN/A
11:30 PM
Aug 19
64 °FPassing clouds.7 mph83%30.04 "HgN/A
11:00 PM64 °FPassing clouds.14 mph83%30.07 "HgN/A
10:30 PM64 °FPassing clouds.17 mph83%30.04 "HgN/A
10:00 PM64 °FPassing clouds.17 mph83%30.04 "HgN/A
9:30 PM64 °FPassing clouds.15 mph83%30.04 "HgN/A
9:00 PM64 °FPassing clouds.12 mph83%30.04 "HgN/A
8:30 PM64 °FPassing clouds.10 mph83%30.04 "HgN/A
8:00 PM66 °FPassing clouds.13 mph73%30.01 "HgN/A
7:30 PM68 °FPassing clouds.15 mph69%30.01 "HgN/A
7:00 PM70 °FPassing clouds.15 mph69%30.01 "HgN/A
6:30 PM72 °FPassing clouds.12 mph61%30.01 "HgN/A
6:00 PM73 °FPassing clouds.13 mph61%30.01 "HgN/A
5:30 PM73 °FPassing clouds.14 mph61%30.01 "HgN/A
5:00 PM75 °FPassing clouds.13 mph57%30.01 "HgN/A
4:30 PM75 °FPassing clouds.15 mph54%29.98 "HgN/A
4:00 PM75 °FPassing clouds.14 mph54%29.98 "HgN/A
Weather by CustomWeather, © 2014

See weather overviewHow to use our weather pages